QPF
0.00 0.00 0.00 0.00 0.00 0.00 0.00 0.00 0.01 0.00 0.00 0.00 0.00 0.00 0.00 0.00 0.00 0.00 0.00 0.00 0.00 0.00 0.00 0.01 0.02 0.01 0.00 0.02 0.10 0.28 0.38 0.38 0.31 0.20 0.14 0.17 0.18 0.10 0.03 0.01 0.00 0.00 0.00 0.00
0.00 0.00 0.00 0.00 0.00 0.00 0.00 0.00 0.00 0.00 0.00 0.00 0.00 0.00 0.00 0.00 0.00 0.00 0.00 0.00 0.00 0.00 0.01 0.06 0.03 0.00 0.01 0.04 0.24 0.33 0.41 0.46 0.38 0.24 0.13 0.08 0.07 0.04 0.01 0.00 0.00 0.00 0.00 0.00
0.00 0.00 0.00 0.00 0.00 0.00 0.02 0.01 0.02 0.03 0.01 0.00 0.00 0.00 0.00 0.00 0.00 0.01 0.01 0.00 0.02 0.01 0.01 0.02 0.03 0.01 0.03 0.07 0.16 0.40 0.42 0.28 0.21 0.15 0.07 0.03 0.01 0.00 0.00 0.00 0.00 0.00 0.00 0.00
0.02 0.01 0.01 0.00 0.00 0.02 0.05 0.01 0.03 0.08 0.03 0.05 0.07 0.01 0.04 0.02 0.02 0.03 0.02 0.01 0.04 0.05 0.04 0.05 0.00 0.00 0.03 0.16 0.25 0.24 0.26 0.20 0.15 0.06 0.01 0.00 0.00 0.00 0.00 0.00 0.00 0.00 0.00 0.00
0.01 0.01 0.00 0.00 0.01 0.01 0.03 0.02 0.11 0.14 0.12 0.19 0.06 0.03 0.04 0.02 0.02 0.01 0.00 0.00 0.00 0.00 0.00 0.00 0.00 0.00 0.00 0.03 0.21 0.32 0.23 0.21 0.19 0.04 0.00 0.00 0.00 0.00 0.00 0.00 0.00 0.00 0.01 0.02
0.01 0.02 0.01 0.00 0.00 0.00 0.00 0.06 0.11 0.21 0.27 0.20 0.06 0.07 0.06 0.01 0.01 0.00 0.00 0.00 0.00 0.00 0.00 0.00 0.00 0.00 0.00 0.00 0.04 0.15 0.27 0.18 0.16 0.06 0.00 0.00 0.00 0.00 0.00 0.00 0.00 0.00 0.00 0.00
0.00 0.01 0.00 0.00 0.00 0.00 0.07 0.12 0.10 0.18 0.17 0.13 0.02 0.03 0.01 0.02 0.02 0.00 0.00 0.00 0.00 0.00 0.00 0.00 0.00 0.00 0.00 0.00 0.00 0.01 0.05 0.12 0.15 0.12 0.02 0.00 0.00 0.00 0.00 0.00 0.00 0.00 0.00 0.00
0.01 0.01 0.00 0.00 0.00 0.08 0.10 0.07 0.06 0.07 0.02 0.00 0.00 0.00 0.00 0.00 0.00 0.00 0.00 0.00 0.00 0.00 0.00 0.00 0.00 0.00 0.00 0.00 0.00 0.00 0.00 0.01 0.06 0.05 0.06 0.00 0.02 0.00 0.00 0.00 0.00 0.01 0.02 0.02
0.01 0.00 0.00 0.00 0.06 0.09 0.19 0.26 0.16 0.04 0.00 0.00 0.00 0.00 0.00 0.00 0.00 0.00 0.00 0.00 0.00 0.00 0.00 0.00 0.00 0.00 0.00 0.00 0.00 0.00 0.00 0.00 0.00 0.01 0.06 0.01 0.08 0.03 0.00 0.00 0.00 0.01 0.01 0.01
0.00 0.00 0.01 0.02 0.03 0.08 0.14 0.12 0.05 0.01 0.00 0.00 0.00 0.00 0.00 0.00 0.00 0.00 0.00 0.00 0.00 0.00 0.00 0.00 0.00 0.00 0.00 0.00 0.00 0.00 0.00 0.00 0.00 0.01 0.04 0.01 0.03 0.05 0.05 0.03 0.01 0.00 0.00 0.00
0.00 0.00 0.01 0.01 0.06 0.05 0.00 0.00 0.01 0.00 0.00 0.00 0.00 0.00 0.00 0.00 0.00 0.00 0.00 0.00 0.00 0.00 0.00 0.00 0.00 0.00 0.00 0.00 0.01 0.00 0.00 0.00 0.01 0.00 0.02 0.06 0.09 0.05 0.01 0.01 0.00 0.00 0.00 0.00
0.00 0.01 0.11 0.03 0.00 0.00 0.00 0.01 0.01 0.00 0.00 0.00 0.00 0.00 0.00 0.00 0.00 0.00 0.00 0.00 0.00 0.00 0.00 0.00 0.00 0.00 0.00 0.05 0.13 0.04 0.02 0.03 0.12 0.08 0.03 0.04 0.05 0.09 0.06 0.01 0.00 0.00 0.00 0.00
0.01 0.00 0.02 0.02 0.00 0.00 0.00 0.00 0.00 0.00 0.00 0.00 0.00 0.00 0.00 0.00 0.00 0.00 0.00 0.00 0.00 0.01 0.00 0.00 0.00 0.00 0.00 0.03 0.24 0.16 0.09 0.10 0.11 0.17 0.06 0.01 0.01 0.00 0.01 0.02 0.00 0.00 0.00 0.00
0.01 0.08 0.07 0.01 0.01 0.00 0.00 0.00 0.01 0.00 0.00 0.00 0.00 0.00 0.00 0.00 0.00 0.00 0.00 0.00 0.00 0.00 0.00 0.00 0.00 0.00 0.00 0.00 0.09 0.20 0.12 0.09 0.06 0.06 0.03 0.00 0.00 0.00 0.00 0.00 0.01 0.01 0.00 0.00
0.04 0.04 0.04 0.01 0.00 0.00 0.00 0.00 0.00 0.00 0.00 0.00 0.00 0.00 0.00 0.00 0.00 0.00 0.00 0.00 0.00 0.00 0.00 0.00 0.00 0.00 0.00 0.00 0.02 0.08 0.04 0.02 0.01 0.01 0.00 0.00 0.00 0.00 0.00 0.00 0.00 0.00 0.01 0.01
0.01 0.01 0.00 0.00 0.00 0.00 0.00 0.00 0.00 0.00 0.00 0.00 0.00 0.00 0.00 0.00 0.00 0.00 0.00 0.00 0.00 0.00 0.00 0.01 0.01 0.01 0.03 0.03 0.02 0.04 0.02 0.00 0.00 0.00 0.00 0.01 0.00 0.00 0.00 0.00 0.00 0.00 0.00 0.01
0.00 0.00 0.00 0.00 0.00 0.00 0.00 0.00 0.00 0.00 0.00 0.00 0.00 0.00 0.00 0.00 0.00 0.00 0.00 0.00 0.00 0.00 0.02 0.06 0.06 0.08 0.10 0.12 0.03 0.01 0.00 0.00 0.00 0.00 0.00 0.00 0.00 0.00 0.00 0.00 0.00 0.00 0.00 0.00
0.00 0.00 0.00 0.01 0.00 0.00 0.00 0.00 0.00 0.00 0.00 0.00 0.00 0.00 0.00 0.00 0.00 0.00 0.00 0.00 0.02 0.02 0.01 0.09 0.12 0.10 0.13 0.11 0.05 0.03 0.00 0.00 0.00 0.00 0.00 0.00 0.00 0.00 0.00 0.00 0.00 0.00 0.00 0.00
0.00 0.00 0.00 0.00 0.00 0.00 0.00 0.00 0.00 0.00 0.00 0.00 0.00 0.00 0.00 0.00 0.00 0.01 0.01 0.05 0.12 0.07 0.03 0.05 0.12 0.11 0.08 0.07 0.06 0.04 0.01 0.00 0.00 0.00 0.00 0.00 0.00 0.00 0.00 0.00 0.00 0.00 0.00 0.00
0.00 0.00 0.00 0.00 0.00 0.00 0.00 0.00 0.00 0.00 0.00 0.00 0.00 0.00 0.00 0.00 0.00 0.00 0.01 0.10 0.12 0.07 0.03 0.03 0.06 0.08 0.09 0.08 0.06 0.05 0.04 0.02 0.01 0.00 0.00 0.00 0.00 0.00 0.00 0.00 0.00 0.00 0.00 0.00
0.00 0.00 0.00 0.00 0.00 0.00 0.00 0.00 0.00 0.00 0.00 0.00 0.00 0.00 0.00 0.00 0.00 0.00 0.00 0.00 0.02 0.10 0.08 0.03 0.01 0.02 0.03 0.03 0.03 0.02 0.01 0.01 0.01 0.00 0.00 0.00 0.00 0.00 0.00 0.00 0.00 0.00 0.00 0.00
0.00 0.00 0.00 0.00 0.00 0.00 0.00 0.00 0.00 0.00 0.00 0.00 0.00 0.00 0.00 0.00 0.00 0.00 0.00 0.00 0.00 0.04 0.14 0.07 0.00 0.00 0.00 0.00 0.00 0.00 0.00 0.00 0.00 0.00 0.00 0.00 0.00 0.00 0.00 0.00 0.00 0.00 0.00 0.00
0.00 0.00 0.00 0.00 0.00 0.00 0.00 0.00 0.00 0.00 0.00 0.00 0.00 0.00 0.00 0.00 0.00 0.00 0.00 0.00 0.00 0.01 0.05 0.09 0.04 0.00 0.00 0.00 0.00 0.00 0.00 0.00 0.00 0.00 0.00 0.00 0.00 0.00 0.00 0.00 0.00 0.00 0.00 0.00
0.00 0.00 0.00 0.00 0.00 0.00 0.00 0.00 0.00 0.00 0.00 0.00 0.00 0.01 0.01 0.01 0.00 0.00 0.00 0.00 0.00 0.00 0.00 0.01 0.03 0.03 0.04 0.01 0.00 0.00 0.00 0.00 0.00 0.00 0.00 0.00 0.00 0.00 0.00 0.00 0.00 0.00 0.00 0.00
0.00 0.00 0.00 0.00 0.00 0.00 0.00 0.00 0.00 0.00 0.00 0.00 0.00 0.00 0.00 0.02 0.02 0.01 0.01 0.00 0.00 0.00 0.00 0.00 0.01 0.02 0.03 0.03 0.02 0.01 0.01 0.00 0.00 0.00 0.00 0.00 0.00 0.00 0.00 0.00 0.00 0.00 0.00 0.00
0.00 0.00 0.00 0.00 0.00 0.00 0.00 0.00 0.00 0.00 0.00 0.00 0.00 0.00 0.00 0.01 0.02 0.01 0.01 0.01 0.01 0.01 0.01 0.00 0.00 0.00 0.00 0.01 0.01 0.01 0.00 0.00 0.00 0.00 0.00 0.00 0.00 0.00 0.00 0.00 0.00 0.00 0.00 0.00
0.00 0.00 0.00 0.00 0.00 0.00 0.00 0.00 0.00 0.00 0.00 0.01 0.01 0.00 0.00 0.01 0.01 0.01 0.02 0.02 0.02 0.02 0.01 0.01 0.01 0.01 0.00 0.00 0.00 0.00 0.00 0.00 0.00 0.00 0.00 0.00 0.00 0.00 0.00 0.00 0.00 0.00 0.00 0.00
MSLP
1016.39 1015.29 1014.64 1013.90 1012.97 1012.41 1012.45 1011.82 1011.11 1009.05 1007.09 1005.37 1004.62 1003.51 1002.72 1002.03 1001.46 1000.14 999.38 998.86 998.32 998.00 998.02 998.43 999.48 1000.20 1001.65 1002.72 1003.32 1003.72 1004.58 1005.43 1006.21 1007.15 1007.77 1008.62 1009.93 1011.41 1012.83 1013.64 1014.83 1015.79 1016.51 1017.29
1016.13 1015.41 1014.43 1012.89 1011.79 1011.31 1011.02 1010.71 1010.10 1009.11 1006.42 1005.28 1003.63 1003.11 1002.34 1001.14 1000.47 999.93 999.52 999.36 999.01 998.69 998.50 998.84 999.41 1000.26 1001.42 1002.63 1003.36 1003.90 1004.72 1005.45 1006.21 1007.00 1007.95 1008.71 1009.91 1011.68 1012.45 1013.43 1014.54 1015.72 1016.17 1016.81
1015.35 1014.60 1013.41 1012.06 1010.49 1010.16 1010.02 1010.26 1010.02 1008.90 1007.66 1006.17 1004.87 1003.89 1001.95 1001.11 1000.40 1000.23 1000.02 999.99 1000.41 999.77 999.52 999.92 1000.07 1000.29 1001.19 1002.46 1003.27 1003.93 1004.36 1005.26 1006.51 1007.45 1008.05 1008.87 1009.94 1010.90 1011.78 1012.79 1013.97 1014.82 1015.45 1016.42
1015.13 1013.87 1012.11 1010.13 1009.93 1010.76 1010.84 1010.35 1009.81 1009.85 1008.64 1007.31 1006.24 1004.34 1002.11 1001.58 1001.06 1000.80 1000.74 1000.45 1000.41 1000.41 1000.25 1000.08 999.88 999.95 1001.14 1002.45 1003.34 1004.13 1004.60 1005.17 1006.21 1007.40 1007.99 1008.94 1009.88 1010.74 1011.67 1012.67 1013.43 1014.24 1015.49 1016.33
1014.35 1012.57 1011.21 1010.54 1010.80 1011.22 1010.74 1008.38 1010.39 1010.29 1009.28 1007.69 1005.87 1003.47 1002.48 1002.28 1001.61 1001.44 1001.12 1000.98 1000.68 1000.47 1000.39 1000.14 999.81 999.75 1000.86 1002.23 1003.21 1004.16 1005.10 1005.18 1005.61 1006.75 1007.46 1008.42 1009.44 1010.49 1011.40 1012.23 1013.37 1014.63 1015.69 1016.73
1014.02 1012.74 1011.06 1009.75 1010.24 1011.00 1010.53 1009.13 1010.29 1010.64 1009.55 1008.36 1006.27 1004.09 1003.84 1002.36 1001.92 1001.34 1000.94 1000.61 1000.37 1000.41 1000.23 1000.23 1000.29 1000.24 1001.35 1002.11 1002.92 1003.70 1004.36 1005.45 1005.64 1006.48 1007.16 1007.98 1009.14 1010.37 1011.61 1012.55 1013.51 1014.88 1015.81 1016.89
1013.34 1012.22 1011.11 1010.63 1011.38 1011.40 1011.16 1011.13 1010.66 1010.38 1009.33 1007.88 1005.99 1004.72 1003.51 1002.46 1001.67 1001.05 1000.74 1000.44 1000.34 999.95 1000.00 1000.30 1000.51 1000.82 1001.16 1002.08 1002.96 1003.69 1004.47 1005.31 1006.46 1006.97 1007.32 1007.99 1009.19 1010.37 1011.46 1012.46 1013.68 1014.90 1016.17 1016.84
1012.82 1012.08 1011.37 1011.46 1011.83 1013.24 1012.75 1011.60 1011.27 1010.22 1009.09 1007.57 1005.87 1004.32 1003.06 1002.07 1001.34 1000.73 1000.11 999.98 1000.05 999.89 999.94 1000.26 1000.69 1000.90 1001.21 1001.90 1002.61 1003.85 1004.76 1005.52 1006.30 1007.17 1007.59 1008.52 1009.47 1010.80 1011.82 1012.96 1014.26 1015.20 1016.32 1017.22
1013.35 1011.74 1011.20 1011.70 1012.68 1013.00 1012.92 1012.07 1010.62 1009.85 1008.44 1007.10 1005.60 1004.12 1003.17 1002.15 1001.22 1000.60 1000.18 999.79 999.82 999.92 1000.03 1000.20 1000.57 1000.92 1001.35 1002.09 1002.83 1003.70 1004.72 1005.49 1006.46 1007.54 1008.15 1009.12 1009.77 1011.01 1011.93 1012.85 1013.95 1015.08 1016.30 1016.92
1013.35 1012.05 1012.11 1012.19 1012.20 1012.32 1012.14 1011.33 1010.21 1009.11 1007.96 1006.41 1005.22 1004.00 1002.93 1002.09 1001.18 1000.45 999.86 999.66 999.51 999.96 1000.17 1000.46 1000.76 1001.23 1001.61 1002.53 1003.36 1004.07 1004.79 1005.52 1006.55 1007.56 1008.62 1009.46 1010.27 1011.08 1011.73 1012.46 1013.43 1014.34 1015.19 1016.12
1012.81 1012.57 1012.35 1011.82 1012.12 1011.78 1011.26 1010.47 1009.58 1008.57 1007.61 1006.58 1005.62 1004.45 1003.54 1002.34 1001.34 1000.63 1000.01 999.74 999.60 999.64 999.87 1000.49 1000.88 1001.34 1002.41 1003.10 1003.93 1004.56 1005.17 1006.02 1006.82 1007.72 1008.59 1009.18 1010.44 1011.00 1011.79 1012.42 1012.97 1013.51 1014.59 1015.52
1012.08 1012.14 1012.56 1011.67 1011.13 1011.31 1010.96 1009.88 1009.41 1008.81 1007.69 1006.83 1006.36 1005.56 1004.44 1003.15 1001.88 1000.97 1000.23 999.90 999.70 999.72 1000.02 1000.41 1001.16 1001.68 1002.90 1003.39 1003.99 1004.87 1005.51 1006.29 1007.05 1007.81 1008.60 1009.41 1010.53 1011.55 1012.33 1012.79 1013.53 1013.91 1014.72 1015.56
1011.55 1011.74 1012.17 1011.80 1011.31 1010.89 1010.16 1009.65 1009.39 1008.91 1008.45 1007.65 1007.03 1006.48 1005.49 1004.39 1002.99 1001.98 1000.62 1000.15 999.99 999.94 1000.04 1000.45 1001.18 1002.03 1002.84 1003.71 1004.34 1004.99 1005.69 1006.38 1007.20 1007.92 1008.45 1009.17 1010.07 1011.13 1012.18 1013.83 1014.33 1014.82 1015.32 1016.12
1011.61 1011.57 1011.62 1011.15 1010.98 1010.50 1010.02 1009.44 1009.42 1009.12 1008.79 1008.23 1007.51 1006.65 1005.84 1005.10 1003.96 1002.66 1001.47 1001.15 1000.82 1000.52 1000.41 1000.59 1000.96 1001.66 1002.82 1003.76 1004.47 1004.90 1005.76 1006.46 1007.10 1007.63 1008.15 1009.26 1010.03 1010.88 1011.51 1012.73 1014.10 1015.30 1016.04 1016.61
1011.32 1011.19 1011.27 1011.42 1011.03 1010.55 1010.03 1009.60 1009.20 1008.98 1008.64 1008.15 1007.62 1006.90 1006.13 1005.27 1004.45 1003.58 1002.66 1001.87 1001.60 1001.35 1001.10 1000.85 1001.11 1001.33 1002.55 1003.54 1004.24 1004.88 1005.63 1006.41 1007.18 1007.93 1008.59 1009.23 1010.09 1010.77 1011.49 1012.70 1013.93 1014.99 1016.04 1016.92
1011.46 1011.35 1011.21 1011.02 1010.87 1010.68 1010.25 1009.85 1009.37 1009.08 1008.86 1008.37 1007.92 1007.31 1006.43 1005.70 1004.94 1003.93 1003.15 1002.65 1002.73 1002.43 1002.20 1001.99 1001.75 1002.03 1002.71 1003.48 1004.20 1005.06 1005.72 1006.42 1007.20 1008.03 1008.73 1009.36 1009.96 1010.57 1011.39 1012.58 1013.63 1014.53 1015.38 1016.15
1011.42 1011.22 1011.20 1011.05 1010.92 1010.81 1010.50 1010.15 1009.73 1009.34 1008.93 1008.64 1008.32 1007.81 1007.02 1006.01 1005.21 1004.52 1003.93 1003.36 1003.40 1003.25 1003.02 1002.76 1002.74 1002.99 1003.32 1003.88 1004.37 1004.93 1005.66 1006.66 1007.35 1008.08 1008.60 1009.26 1009.92 1010.61 1011.43 1012.41 1013.34 1014.12 1014.82 1015.71
1011.87 1011.71 1011.58 1011.39 1011.13 1010.93 1010.58 1010.35 1010.04 1009.72 1009.32 1008.81 1008.54 1007.95 1007.28 1006.60 1005.94 1005.19 1004.50 1003.88 1003.74 1003.55 1003.48 1003.34 1003.33 1003.56 1003.91 1004.31 1004.72 1005.29 1005.85 1006.62 1007.39 1007.99 1008.67 1009.38 1009.95 1010.62 1011.28 1012.07 1012.85 1013.60 1014.66 1015.72
1012.00 1011.85 1011.71 1011.57 1011.33 1011.09 1010.65 1010.17 1010.00 1009.88 1009.54 1009.07 1008.66 1008.01 1007.50 1006.97 1006.38 1005.63 1004.89 1004.28 1004.03 1003.87 1003.92 1003.93 1004.01 1004.12 1004.45 1004.74 1005.06 1005.52 1005.97 1006.57 1007.28 1007.96 1008.60 1009.26 1009.84 1010.36 1010.97 1011.59 1012.30 1013.22 1014.35 1015.34
1011.89 1011.73 1011.62 1011.54 1011.26 1010.97 1010.56 1010.30 1010.08 1009.77 1009.59 1009.27 1008.81 1008.18 1007.55 1007.01 1006.51 1005.83 1005.11 1004.61 1004.44 1004.35 1004.24 1004.25 1004.35 1004.56 1004.82 1005.18 1005.40 1005.63 1006.03 1006.54 1007.07 1007.77 1008.44 1009.06 1009.64 1010.24 1010.85 1011.42 1012.08 1012.96 1013.88 1014.75
1011.79 1011.64 1011.52 1011.39 1011.31 1011.18 1011.07 1010.90 1010.41 1009.95 1009.56 1009.20 1008.86 1008.35 1007.81 1007.15 1006.56 1006.03 1005.37 1004.75 1004.58 1004.50 1004.36 1004.40 1004.42 1004.67 1005.05 1005.35 1005.48 1005.72 1006.17 1006.66 1007.18 1007.71 1008.29 1008.83 1009.54 1010.12 1010.71 1011.22 1011.91 1012.72 1013.49 1014.21
1011.88 1011.85 1011.95 1011.80 1011.63 1011.29 1011.10 1010.90 1010.54 1010.09 1009.66 1009.15 1008.69 1008.27 1007.72 1007.00 1006.48 1006.02 1005.55 1005.41 1004.88 1004.73 1004.58 1004.48 1004.43 1004.49 1004.73 1005.37 1005.20 1005.79 1006.21 1006.62 1007.09 1007.60 1008.15 1008.69 1009.30 1009.92 1010.51 1011.14 1011.77 1012.42 1013.11 1013.79
1012.37 1012.27 1012.03 1011.97 1011.74 1011.41 1010.97 1010.68 1010.35 1009.99 1009.62 1009.14 1008.68 1008.15 1007.70 1007.18 1006.59 1006.12 1005.56 1005.07 1005.15 1004.94 1004.75 1004.66 1004.59 1004.80 1005.05 1005.04 1005.24 1005.67 1006.03 1006.46 1006.89 1007.33 1007.88 1008.45 1009.05 1009.64 1010.20 1010.78 1011.43 1012.06 1012.78 1013.46
1012.63 1012.46 1012.26 1012.00 1011.62 1011.00 1010.52 1010.30 1009.94 1009.47 1009.42 1008.98 1008.51 1008.15 1007.71 1007.03 1006.51 1005.99 1005.88 1005.55 1005.26 1005.09 1004.83 1004.65 1004.80 1004.93 1005.20 1005.18 1005.41 1005.75 1006.06 1006.43 1006.80 1007.25 1007.80 1008.32 1008.82 1009.35 1009.90 1010.45 1011.07 1011.76 1012.45 1013.12
1013.06 1012.66 1012.27 1011.96 1011.38 1010.93 1011.04 1010.67 1009.92 1009.41 1009.11 1008.67 1008.31 1007.91 1007.64 1007.29 1006.88 1006.24 1005.88 1005.49 1005.18 1004.97 1004.74 1004.94 1004.93 1004.97 1005.00 1005.07 1005.26 1005.58 1005.91 1006.29 1006.64 1007.05 1007.49 1007.98 1008.51 1009.05 1009.59 1010.15 1010.72 1011.40 1012.10 1012.77
1013.01 1012.72 1012.41 1012.11 1011.87 1011.54 1011.29 1011.01 1010.50 1009.57 1009.11 1008.58 1008.07 1007.71 1007.40 1007.09 1006.54 1006.06 1005.68 1005.34 1005.10 1004.80 1004.66 1004.54 1004.73 1004.86 1004.86 1004.92 1005.07 1005.31 1005.55 1005.86 1006.35 1006.70 1007.20 1007.61 1008.15 1008.68 1009.24 1009.83 1010.46 1011.11 1011.76 1012.45
1013.19 1013.02 1012.60 1012.17 1011.89 1011.76 1011.55 1011.50 1010.95 1010.26 1009.70 1009.04 1008.33 1007.82 1007.16 1006.71 1006.32 1005.88 1005.43 1005.14 1004.81 1004.61 1004.43 1004.35 1004.37 1004.47 1004.49 1004.63 1004.81 1005.00 1005.30 1005.61 1005.98 1006.31 1006.76 1007.24 1007.78 1008.28 1008.86 1009.49 1010.14 1010.80 1011.47 1012.12
Thickness
5423 5429 5426 5423 5428 5432 5421 5424 5409 5428 5442 5455 5456 5460 5464 5468 5470 5480 5484 5484 5485 5485 5484 5481 5472 5469 5452 5445 5443 5444 5441 5439 5439 5437 5439 5439 5435 5427 5421 5424 5419 5416 5417 5419
5394 5405 5407 5413 5429 5427 5428 5426 5426 5429 5447 5460 5468 5466 5466 5475 5478 5481 5480 5476 5476 5476 5477 5472 5467 5461 5449 5439 5436 5433 5431 5430 5429 5429 5427 5430 5427 5418 5419 5417 5416 5412 5416 5418
5381 5403 5403 5403 5420 5429 5432 5424 5418 5421 5432 5445 5449 5448 5467 5472 5477 5474 5474 5469 5456 5461 5465 5459 5456 5457 5448 5433 5427 5426 5427 5425 5421 5418 5422 5424 5421 5420 5421 5420 5417 5415 5418 5416
5365 5390 5384 5427 5428 5407 5398 5415 5420 5400 5414 5425 5414 5428 5462 5463 5465 5466 5463 5462 5457 5453 5454 5453 5457 5458 5445 5431 5423 5419 5418 5423 5420 5417 5421 5419 5419 5419 5417 5415 5416 5416 5411 5410
5368 5391 5407 5410 5397 5389 5394 5427 5397 5391 5401 5405 5415 5449 5455 5452 5456 5455 5458 5454 5456 5456 5453 5452 5458 5457 5446 5431 5422 5416 5415 5423 5425 5423 5424 5422 5419 5417 5415 5415 5412 5406 5403 5400
5366 5359 5369 5414 5408 5398 5405 5416 5395 5381 5388 5392 5414 5441 5421 5450 5452 5455 5457 5459 5459 5457 5457 5456 5453 5454 5438 5430 5426 5418 5418 5418 5424 5424 5425 5425 5421 5415 5409 5408 5407 5401 5398 5392
5359 5363 5380 5399 5385 5385 5388 5397 5379 5381 5384 5394 5418 5429 5439 5447 5452 5455 5456 5458 5458 5461 5460 5454 5452 5448 5447 5437 5426 5423 5420 5419 5416 5418 5421 5421 5416 5411 5407 5404 5399 5394 5387 5386
5356 5353 5357 5380 5375 5352 5364 5367 5375 5378 5386 5400 5423 5435 5443 5449 5452 5455 5459 5460 5459 5460 5459 5454 5450 5448 5447 5439 5436 5427 5419 5416 5413 5412 5415 5412 5411 5403 5400 5395 5386 5383 5378 5375
5334 5365 5378 5373 5355 5352 5352 5357 5370 5376 5391 5403 5418 5432 5436 5444 5451 5454 5455 5458 5458 5456 5455 5453 5450 5448 5446 5439 5433 5427 5421 5416 5409 5404 5402 5401 5401 5396 5395 5392 5386 5380 5373 5371
5337 5360 5360 5359 5361 5359 5357 5365 5377 5385 5396 5412 5420 5428 5437 5441 5448 5451 5454 5454 5456 5450 5447 5444 5441 5438 5437 5430 5424 5419 5416 5414 5408 5401 5395 5394 5391 5389 5390 5389 5385 5380 5375 5370
5338 5347 5352 5360 5354 5358 5364 5373 5380 5390 5398 5406 5412 5420 5426 5435 5441 5444 5447 5448 5447 5446 5445 5437 5432 5429 5419 5415 5408 5407 5405 5400 5398 5394 5391 5390 5384 5385 5384 5382 5382 5381 5374 5368
5343 5352 5340 5354 5366 5361 5362 5376 5379 5382 5391 5398 5398 5401 5409 5420 5429 5434 5437 5438 5437 5436 5432 5429 5420 5416 5404 5401 5399 5394 5394 5392 5389 5387 5385 5384 5380 5375 5371 5373 5370 5370 5365 5359
5352 5355 5350 5354 5359 5361 5372 5375 5375 5377 5378 5381 5383 5384 5390 5397 5410 5413 5426 5426 5424 5423 5422 5418 5411 5403 5397 5390 5386 5385 5383 5381 5379 5380 5382 5383 5380 5375 5369 5359 5357 5355 5354 5348
5355 5355 5350 5362 5360 5367 5369 5373 5369 5369 5368 5370 5373 5379 5383 5384 5392 5401 5408 5407 5407 5409 5410 5409 5406 5400 5391 5385 5381 5380 5379 5377 5377 5377 5377 5375 5374 5372 5372 5364 5354 5345 5339 5334
5354 5358 5355 5352 5358 5361 5364 5366 5367 5365 5362 5364 5367 5371 5374 5377 5379 5383 5389 5396 5395 5396 5397 5402 5399 5397 5387 5382 5380 5378 5375 5376 5374 5372 5370 5369 5368 5367 5365 5357 5348 5339 5331 5325
5354 5354 5356 5357 5356 5355 5357 5358 5361 5360 5356 5356 5358 5360 5367 5369 5370 5377 5382 5386 5377 5377 5377 5375 5379 5381 5379 5379 5377 5374 5373 5372 5370 5367 5365 5365 5365 5364 5359 5350 5343 5337 5331 5325
5351 5354 5352 5352 5351 5348 5349 5351 5353 5354 5355 5353 5350 5351 5356 5362 5364 5366 5369 5374 5369 5368 5367 5367 5368 5368 5369 5371 5373 5374 5372 5367 5365 5364 5364 5363 5360 5357 5352 5345 5338 5333 5328 5320
5344 5345 5345 5345 5345 5344 5345 5345 5345 5346 5346 5349 5345 5346 5349 5352 5355 5357 5360 5364 5363 5364 5363 5361 5362 5363 5364 5366 5368 5367 5367 5364 5362 5360 5358 5355 5354 5350 5346 5341 5336 5331 5321 5312
5339 5339 5338 5337 5338 5338 5340 5343 5342 5340 5339 5342 5339 5342 5344 5346 5348 5351 5355 5359 5360 5362 5361 5357 5355 5357 5359 5361 5362 5362 5362 5362 5360 5357 5354 5351 5348 5345 5342 5338 5334 5327 5316 5308
5334 5334 5333 5331 5333 5334 5336 5337 5336 5336 5334 5332 5332 5337 5340 5341 5343 5346 5351 5356 5354 5354 5354 5354 5353 5354 5354 5354 5356 5358 5358 5357 5356 5352 5349 5346 5342 5338 5335 5332 5328 5320 5312 5305
5326 5326 5325 5324 5322 5320 5317 5317 5320 5322 5324 5325 5326 5328 5331 5335 5337 5340 5346 5352 5350 5349 5349 5350 5352 5351 5350 5349 5350 5351 5351 5349 5347 5345 5342 5339 5334 5332 5328 5324 5319 5312 5306 5300
5314 5311 5305 5305 5304 5306 5306 5306 5308 5311 5313 5316 5318 5320 5323 5329 5331 5333 5338 5338 5341 5340 5343 5345 5347 5348 5348 5344 5349 5345 5344 5343 5341 5338 5335 5332 5328 5323 5319 5314 5310 5305 5299 5292
5295 5293 5293 5290 5290 5291 5295 5295 5296 5298 5300 5303 5306 5310 5313 5316 5321 5324 5330 5336 5333 5333 5336 5337 5338 5338 5338 5340 5340 5338 5338 5336 5334 5332 5328 5324 5320 5315 5312 5307 5302 5297 5290 5285
5278 5276 5275 5275 5277 5284 5287 5285 5286 5288 5286 5288 5292 5294 5298 5305 5308 5315 5315 5318 5321 5323 5327 5329 5328 5328 5328 5330 5329 5328 5328 5326 5325 5322 5319 5315 5312 5308 5304 5300 5295 5289 5284 5279
5257 5259 5260 5260 5265 5267 5262 5264 5271 5273 5274 5277 5279 5283 5285 5288 5293 5299 5303 5308 5311 5314 5318 5316 5318 5319 5321 5322 5322 5320 5319 5317 5316 5314 5312 5308 5305 5301 5297 5293 5289 5284 5279 5275
5243 5244 5244 5244 5244 5245 5246 5246 5249 5259 5261 5265 5268 5270 5273 5276 5283 5288 5292 5297 5301 5305 5308 5309 5309 5310 5312 5313 5314 5313 5312 5311 5308 5307 5304 5302 5298 5295 5291 5287 5283 5279 5274 5270
5225 5223 5225 5227 5227 5227 5227 5224 5228 5234 5238 5243 5250 5255 5261 5265 5270 5277 5282 5286 5292 5296 5298 5300 5302 5302 5304 5305 5305 5306 5305 5304 5302 5301 5298 5295 5292 5289 5286 5282 5278 5274 5269 5265